Location: LDNL
(36.4545°S, 141.6685°E)
Time: 20:02:50
(UTC+10:00)

A-11 Canister half - Pass Details

Date: 01 February 2022
Orbit: 1527 x 1682 km, 47.3° (Epoch: 20 May)

Event Time Altitude Azimuth Distance (km) Brightness Sun altitude
Rises 04:08:14 0° 240° (WSW) 4,921 11.6 -26.8°
Reaches altitude 10° 04:11:29 10° 236° (WSW) 3,916 11.1 -26.4°
Maximum altitude 04:21:27 65° 155° (SSE) 1,754 9.4 -25.1°
Drops below altitude 10° 04:31:02 10° 73° (ENE) 3,777 11.3 -23.8°
Sets 04:34:06 0° 70° (ENE) 4,739 11.9 -23.3°
